Temp
7 7 6 7 8 8 8 5 6 6 6 6 6 7 7 8 12 13 14 13 13 13 12 11 12 12 12 13 14 13 12 13 10 15 16 15 14 13 14 12 14 11 11 11
6 7 6 7 8 8 7 5 6 6 7 5 6 8 11 12 13 13 14 14 14 15 12 12 13 13 14 15 14 13 13 12 10 12 13 13 14 14 14 15 11 11 10 11
6 6 6 8 8 8 8 5 6 6 6 6 7 10 12 12 13 13 14 14 15 15 14 14 14 13 14 15 14 13 12 11 11 10 12 13 13 13 14 12 10 11 10 10
6 6 7 8 9 9 8 6 5 7 5 7 7 12 12 12 12 13 14 14 15 15 14 14 14 14 14 14 15 14 12 11 10 13 15 13 12 12 13 12 13 11 11 11
6 7 8 8 9 9 9 6 6 6 7 9 11 12 11 12 12 12 12 12 12 12 11 12 13 14 13 13 13 14 12 10 11 10 14 13 12 11 12 13 13 12 12 13
8 8 8 9 9 10 8 9 9 7 9 9 10 10 11 12 13 12 12 12 11 11 11 10 10 13 13 14 13 12 12 9 7 10 13 13 11 11 12 13 12 13 13 13
7 8 8 9 10 10 9 8 7 7 8 9 10 11 11 10 11 11 11 10 11 12 10 11 13 14 13 13 12 11 13 11 6 8 10 10 12 13 13 13 13 12 12 11
7 7 8 9 9 10 10 8 7 6 8 9 11 12 11 11 10 11 10 11 11 9 11 12 12 11 13 14 14 13 12 11 9 9 8 13 12 12 12 13 12 12 12 11
7 8 8 9 9 9 9 8 7 6 7 7 6 8 12 10 10 10 12 11 11 11 10 11 12 10 12 12 11 13 13 11 10 10 12 13 13 12 12 12 10 12 11 10
7 8 8 8 8 9 9 8 8 7 4 4 5 7 8 9 10 9 10 12 10 11 9 10 10 9 12 11 12 12 10 10 10 10 10 11 12 11 12 12 11 12 12 10
7 8 8 8 8 8 9 8 8 8 3 3 6 6 5 7 8 9 9 10 10 9 10 10 9 10 10 10 12 12 10 9 10 9 10 11 11 11 12 10 10 11 11 10
6 9 8 8 8 9 9 9 8 8 5 4 6 5 5 5 5 5 7 9 9 8 9 8 8 10 8 9 10 11 10 10 10 10 10 10 9 11 10 9 9 10 10 9
7 8 10 9 9 9 9 8 8 9 4 4 5 6 6 6 6 6 7 7 7 8 6 7 8 9 7 9 8 11 11 9 9 10 11 11 10 9 8 9 9 8 7 7
7 7 9 10 10 9 9 8 7 7 6 7 6 6 6 6 6 6 6 6 6 6 5 7 7 8 8 8 8 8 8 9 9 8 9 11 10 9 8 7 6 5 5 6
6 6 6 8 10 10 9 8 7 7 6 6 5 6 7 7 7 7 6 6 6 6 7 6 7 5 7 5 5 5 7 8 8 9 9 9 9 7 8 6 6 5 5 5
5 6 6 7 8 9 9 6 8 8 8 3 5 5 6 7 7 7 7 6 5 5 6 6 5 5 5 5 5 7 7 7 8 9 8 6 6 6 7 5 4 4 4 4
6 6 6 7 8 9 9 6 8 8 8 4 5 4 4 6 6 5 5 6 4 5 5 5 5 5 4 4 5 9 9 7 7 6 6 7 6 5 4 4 4 5 4 4
6 6 6 7 8 8 8 8 8 8 7 3 4 3 4 5 4 5 3 4 4 4 4 3 4 3 3 4 5 8 8 5 6 5 5 5 4 3 3 3 3 3 2 2
6 6 7 6 7 6 7 7 7 7 6 1 2 0 2 3 3 3 4 3 4 3 4 4 4 4 4 7 6 6 6 6 6 4 4 3 4 3 2 2 2 2 2 2
5 6 6 3 6 6 6 6 4 1 1 0 1 -0 3 2 3 4 4 3 3 2 4 3 3 4 6 7 6 7 5 5 3 3 3 3 3 2 2 2 2 2 1 1
6 5 3 5 6 6 3 2 2 2 3 2 1 0 1 2 3 4 4 2 0 1 3 4 3 5 4 5 6 5 4 3 3 5 4 3 2 1 1 1 1 2 2 0
6 6 5 5 3 0 2 -1 1 2 3 2 1 2 2 2 1 3 3 2 0 2 1 2 3 5 4 4 5 4 2 2 3 4 2 2 2 2 1 1 1 1 1 0
6 5 1 1 0 1 1 2 -0 -0 0 -1 -0 0 2 1 2 2 2 2 3 1 -1 2 3 4 4 3 3 3 2 2 2 2 2 2 1 2 2 0 1 0 -0 -1
2 0 2 1 -1 -0 1 1 0 1 -0 0 0 -0 1 1 1 2 1 3 3 -1 -2 2 1 3 3 1 1 1 1 0 -1 -1 1 0 -0 -0 0 0 -0 -1 -1 -2
1 -0 1 0 1 -3 -4 -5 -3 -2 -0 1 0 -1 1 -0 1 2 1 -0 -1 0 2 1 -0 2 1 1 1 1 0 -0 -1 -1 -1 -1 -1 -1 -1 -1 -1 -2 -2 -3
-1 -1 -1 -0 -1 -3 -4 -6 -3 -3 0 -2 -0 -1 -1 1 0 0 0 -1 1 2 -1 0 -2 2 1 1 1 1 0 -0 0 0 -0 -1 -1 -2 -1 -2 -2 -3 -3 -4
2 2 0 -1 -3 -0 -1 -1 -0 -0 0 -0 -1 -1 3 -1 -2 -1 0 0 1 1 0 -3 -0 1 1 0 1 1 1 0 0 0 -0 -0 -1 -2 -2 -4 -3 -3 -4 -4
Height
783 779 775 772 771 769 769 769 776 783 781 781 782 779 777 774 757 754 751 751 752 755 760 767 763 766 767 763 761 764 761 760 774 748 738 737 741 739 734 750 743 755 763 771
785 781 778 775 774 772 772 779 785 786 784 790 788 775 763 759 755 755 752 752 750 748 758 762 763 762 758 757 759 762 761 765 779 764 755 744 741 735 733 730 747 757 772 778
785 782 778 776 775 774 774 779 788 788 785 783 783 771 761 761 755 754 750 752 748 749 753 755 760 762 757 755 757 758 761 767 772 786 766 758 753 747 739 741 767 764 767 774
784 780 778 775 773 773 774 777 789 783 792 783 781 764 762 764 763 757 752 756 753 752 760 760 760 757 758 756 754 756 761 774 776 758 752 755 759 756 750 751 746 760 768 766
784 781 777 775 773 772 773 780 784 783 781 775 767 766 768 766 765 764 767 768 765 762 769 767 765 761 764 763 760 756 760 778 771 779 757 758 762 763 755 753 754 759 761 761
784 783 781 777 774 774 775 777 778 782 780 779 777 776 773 769 764 769 769 767 768 770 771 771 770 761 762 761 761 764 762 779 795 785 763 759 772 769 764 760 762 759 763 759
788 787 785 781 777 776 778 779 780 782 787 780 778 774 773 775 774 773 775 773 772 773 770 766 762 761 762 763 763 763 763 772 795 797 776 792 768 763 763 764 761 762 764 766
793 790 788 785 782 779 779 781 781 783 787 784 777 775 776 778 778 778 779 777 776 774 773 773 774 777 767 763 761 760 762 770 787 792 797 769 767 765 764 761 767 765 764 768
796 793 790 786 783 782 781 782 782 783 787 792 792 786 776 782 783 784 778 775 773 774 777 779 775 788 774 773 772 761 760 764 777 778 772 765 762 764 764 764 777 765 766 769
796 797 794 791 787 785 784 784 783 782 794 795 793 791 788 784 783 788 781 777 777 774 785 786 788 795 775 780 774 771 779 778 778 781 780 768 760 763 763 767 772 764 764 768
798 797 797 795 791 787 786 786 784 784 794 795 793 792 792 788 788 787 784 782 781 783 785 787 789 788 783 781 770 768 778 787 781 782 778 778 761 764 763 765 764 764 765 767
801 799 798 797 793 789 787 787 787 786 787 794 793 792 792 792 792 793 788 786 785 787 789 790 790 784 788 783 783 771 778 774 773 774 769 760 760 758 759 762 764 764 765 769
797 795 797 797 796 794 791 789 788 788 791 795 794 793 792 791 791 792 791 790 789 786 787 789 788 785 790 786 785 766 766 768 771 766 757 756 757 758 760 761 763 767 768 770
796 793 792 795 796 795 793 792 791 789 790 795 794 792 792 792 791 791 791 790 788 787 788 788 789 787 784 785 778 777 769 767 768 768 758 753 754 756 759 762 765 768 769 771
796 796 795 793 794 795 795 795 794 793 796 797 795 792 791 791 791 791 791 790 789 789 789 793 789 790 787 787 785 781 762 760 764 762 752 752 754 757 757 762 765 767 769 771
795 795 793 793 793 794 793 796 796 794 793 798 802 793 790 790 790 789 789 789 790 790 790 790 790 789 790 794 786 752 749 747 746 748 751 754 756 758 758 761 764 766 768 770
795 792 794 792 791 791 793 798 796 794 793 796 801 799 793 791 790 789 788 787 788 788 790 790 790 789 791 790 778 745 741 744 746 748 751 756 757 759 760 761 764 766 768 770
791 794 793 793 789 790 792 792 793 793 794 797 805 803 797 792 794 794 791 790 790 788 788 790 788 789 790 779 749 741 740 744 746 747 748 750 754 758 761 763 765 768 769 771
792 795 794 794 791 789 787 789 790 792 797 807 809 817 813 795 796 794 793 793 798 794 793 791 789 785 779 742 741 741 741 740 743 749 751 753 755 759 761 763 766 768 769 770
794 796 795 795 789 787 788 788 790 792 794 797 803 802 800 796 795 793 797 795 798 806 790 791 789 769 740 730 732 732 735 739 744 751 757 756 757 759 762 763 764 766 767 768
797 795 795 790 790 789 789 796 797 798 799 794 795 798 801 794 798 794 792 798 804 809 795 792 784 756 737 727 725 725 729 734 740 742 744 748 750 756 760 763 764 765 767 768
789 792 794 793 794 796 798 809 800 797 792 793 798 795 794 795 795 797 798 802 807 808 798 799 782 743 733 731 729 729 731 735 739 742 744 747 750 753 757 761 763 764 766 767
786 789 796 800 801 806 802 800 803 799 787 789 794 801 795 795 795 797 800 805 802 799 812 790 762 738 733 733 734 736 736 737 740 745 748 751 752 755 757 760 761 763 764 765
786 795 800 801 807 797 783 781 780 775 776 781 784 796 797 796 799 797 806 794 796 816 820 777 751 735 733 733 732 734 738 740 742 745 747 750 752 754 757 760 762 762 763 763
785 789 791 789 777 784 784 781 779 775 774 776 786 793 794 799 798 797 802 810 814 798 776 758 745 736 734 735 735 733 736 739 742 745 748 749 753 753 754 757 759 760 761 761
777 781 780 772 778 783 786 786 781 774 772 779 782 795 803 797 796 803 801 806 791 763 758 741 738 733 734 734 736 738 736 736 739 742 745 746 750 753 754 756 757 757 758 759
764 759 759 761 766 768 770 772 772 771 774 781 785 794 781 792 804 795 781 776 753 742 738 736 732 729 729 732 734 736 738 739 740 742 744 745 749 751 753 754 755 755 756 756
Wind_Speed
33 32 28 23 12 9 15 6 5 4 3 3 2 1 2 7 6 7 2 4 4 3 4 3 2 3 3 7 3 3 6 2 3 3 4 4 3 6 1 4 5 4 4 3
31 29 23 18 12 10 4 3 3 1 4 2 1 4 4 3 4 4 4 2 3 2 3 4 3 3 2 1 2 2 4 3 3 8 5 6 4 7 4 2 3 4 4 2
30 27 20 15 11 4 2 3 3 2 1 1 2 3 2 2 4 4 3 4 2 1 3 1 3 1 2 1 1 3 1 3 3 4 5 4 5 8 12 4 4 1 1 8
29 24 16 13 10 3 1 2 2 3 2 3 5 2 3 3 4 5 6 6 5 2 4 4 3 1 3 2 2 2 4 2 3 4 1 4 5 5 10 9 2 4 6 3
25 16 15 13 9 7 3 3 3 1 3 2 2 4 4 4 4 6 6 5 6 10 5 4 3 2 3 0 5 2 3 1 2 4 3 5 3 9 8 8 8 8 6 3
20 11 16 16 12 8 6 4 2 3 5 4 4 5 5 5 2 5 4 1 5 7 6 5 6 2 1 2 1 3 2 3 3 3 3 3 5 4 4 3 4 1 2 2
18 15 16 19 15 11 5 4 2 3 3 3 2 3 3 7 5 3 4 7 4 4 7 6 1 1 3 4 5 2 2 3 2 3 3 3 5 1 1 2 3 4 5 5
17 16 16 16 17 11 7 6 3 2 1 1 4 5 5 4 5 4 3 4 2 4 4 3 3 3 2 2 2 4 2 3 2 3 1 2 2 3 2 2 0 3 3 4
11 19 19 17 16 9 6 11 7 2 4 2 3 3 2 2 3 4 3 4 4 3 2 3 2 0 2 4 8 5 4 3 3 2 2 3 3 2 1 0 1 1 3 4
8 16 23 21 15 9 6 8 11 3 3 2 3 2 1 2 2 2 2 4 5 3 3 2 1 2 1 2 3 3 3 3 2 1 1 4 2 4 3 2 4 3 2 5
8 8 13 21 26 11 6 5 11 3 3 3 3 4 3 4 2 2 3 3 4 3 3 2 2 1 2 2 3 2 3 2 2 1 0 4 5 2 5 4 2 4 3 3
1 4 8 15 24 21 5 4 7 7 6 3 1 3 2 2 3 1 3 2 1 2 1 1 1 1 1 2 3 0 2 5 3 6 5 4 5 4 2 3 4 3 4 3
6 4 4 12 17 19 13 4 9 2 3 2 2 1 1 1 0 1 1 2 2 2 2 2 2 2 2 2 4 2 3 3 2 3 1 5 6 3 5 4 4 4 4 4
5 4 4 4 10 14 16 10 14 2 2 2 3 1 2 1 2 3 4 3 4 2 1 1 0 1 2 3 4 3 5 4 4 4 6 1 2 5 6 5 6 7 5 4
4 4 4 2 4 7 9 12 17 11 2 2 3 3 2 0 1 4 4 3 2 1 2 1 2 2 1 2 2 4 5 7 5 5 5 4 2 5 4 7 5 6 6 4
6 5 4 2 1 2 2 3 4 12 4 3 3 3 1 0 2 1 1 1 1 1 2 2 2 1 1 1 3 6 6 4 6 4 3 2 5 5 1 5 6 5 6 5
8 5 2 1 2 2 3 4 4 8 3 3 3 4 3 3 3 2 1 1 1 2 1 1 1 1 3 2 5 5 5 7 5 5 6 3 3 4 4 7 7 9 7 6
11 6 3 1 4 5 2 2 3 5 3 4 1 3 3 3 1 2 2 2 2 1 2 1 2 1 1 5 7 5 3 7 5 7 4 4 6 7 6 6 6 4 3 3
13 8 4 4 3 2 4 2 2 2 2 2 1 3 3 3 2 1 2 2 1 2 2 2 2 3 6 9 7 7 8 8 7 6 6 6 6 7 6 5 5 4 3 2
12 7 1 3 3 2 2 2 2 3 2 2 3 1 2 3 1 1 1 1 1 1 3 1 3 5 11 11 8 6 8 7 11 7 4 4 4 6 6 6 4 4 3 2
3 2 2 2 1 1 4 1 3 0 2 2 2 3 2 1 2 3 2 2 1 1 4 2 3 4 4 6 8 8 9 10 8 3 4 7 7 7 6 5 5 4 3 2
7 4 1 1 3 3 4 2 2 3 5 2 2 3 3 1 2 2 2 1 3 4 1 1 4 4 4 4 1 4 8 9 8 6 7 8 9 11 9 7 6 4 2 2
6 3 3 2 2 2 7 7 4 2 4 3 2 1 1 1 1 2 2 2 4 1 1 4 5 4 3 2 3 4 4 9 9 6 10 13 12 12 9 7 5 4 2 2
3 4 2 5 3 5 5 4 4 4 4 5 4 2 2 1 2 2 3 3 2 2 2 6 3 4 5 5 4 6 7 8 8 7 10 11 11 10 8 6 4 2 1 5
3 4 5 6 4 1 3 1 2 1 4 5 3 3 2 0 2 2 2 3 4 6 5 3 3 5 4 5 5 7 7 7 7 9 8 10 11 10 8 6 4 1 2 4
4 3 1 3 2 2 2 1 1 2 4 2 3 3 3 4 4 3 7 5 7 4 4 4 3 3 4 5 5 5 7 9 9 13 13 13 12 10 8 5 2 2 2 5
5 5 3 3 3 4 4 4 4 7 3 3 3 6 9 2 2 4 5 6 4 4 4 3 4 5 6 5 5 6 9 9 12 14 14 13 11 9 7 4 4 1 3 4
Wind_Direction
5 7 12 25 65 93 62 40 76 150 351 42 46 3 178 213 239 208 259 60 81 95 97 109 118 139 237 205 228 223 222 240 295 279 290 265 276 271 118 98 329 49 91 11
2 1 6 24 57 68 53 66 80 67 313 101 359 275 257 15 29 10 30 59 50 131 131 102 137 134 257 253 245 290 347 335 352 336 349 347 0 342 348 96 62 12 107 176
356 355 5 20 31 71 80 111 92 325 312 264 176 249 54 36 331 360 42 45 333 13 97 325 117 129 256 242 262 205 304 34 150 166 219 248 353 347 5 60 74 260 88 149
353 356 8 16 17 40 170 63 172 198 214 264 247 298 76 69 13 335 19 24 6 356 95 86 77 49 324 275 262 273 128 76 35 357 46 59 28 358 12 32 22 108 175 99
1 4 20 20 16 4 77 112 133 31 281 301 345 55 20 44 16 36 11 73 44 65 81 48 36 333 52 288 321 347 14 180 74 2 66 80 44 14 8 30 27 78 137 132
14 50 42 32 29 26 62 24 28 104 314 351 53 3 35 6 67 20 58 239 70 37 356 330 294 15 33 359 28 334 77 112 63 276 336 353 2 349 16 58 32 73 111 269
42 65 47 34 29 31 54 41 358 72 331 63 114 86 72 51 25 84 354 31 68 316 330 312 249 156 100 60 9 54 100 103 108 227 14 38 250 315 205 101 64 66 67 53
55 38 26 19 16 13 43 29 39 69 100 330 38 79 109 88 44 53 37 350 236 318 331 29 19 338 308 320 2 349 70 118 57 100 117 212 210 243 226 146 314 4 141 110
47 32 15 6 9 18 46 34 15 106 109 338 308 327 23 75 56 14 334 286 260 13 34 46 71 132 305 312 338 325 333 83 109 70 106 218 217 187 150 299 256 231 145 164
75 53 44 32 26 32 41 35 20 72 104 295 21 69 186 318 80 138 302 333 352 43 34 59 70 286 194 296 302 325 336 356 123 334 268 283 192 153 167 143 220 174 129 168
99 76 35 26 26 23 40 60 35 62 115 282 358 357 10 349 34 139 281 23 353 3 52 109 258 169 252 325 245 202 190 138 228 109 107 295 160 96 186 192 186 158 120 112
131 72 20 6 18 23 26 35 27 56 86 182 68 91 71 144 141 121 325 177 38 214 73 356 94 310 335 193 279 317 265 186 195 178 216 217 191 195 174 149 156 161 134 124
245 175 10 351 11 22 24 33 18 50 88 349 23 282 304 39 42 230 80 358 325 8 182 196 236 265 123 252 249 264 271 162 217 11 273 210 186 159 164 163 127 111 108 123
265 256 238 322 1 17 27 47 16 26 120 111 281 263 261 313 304 242 228 263 306 252 71 83 187 222 144 243 252 204 207 135 200 260 275 3 231 182 174 137 117 115 105 123
290 275 300 317 8 19 12 48 44 32 47 204 269 303 229 136 324 273 254 246 300 358 355 69 249 256 14 283 341 249 190 188 171 226 215 170 202 139 122 147 162 160 143 140
273 288 246 312 35 67 49 18 19 19 37 75 339 320 208 308 304 347 328 270 302 115 147 244 277 254 135 279 253 255 219 206 182 208 154 107 122 101 83 129 141 136 130 136
256 247 281 322 185 156 137 170 322 346 4 77 327 337 326 322 317 299 279 264 212 141 229 238 217 253 142 238 240 255 239 173 145 128 112 92 172 183 122 121 123 120 120 118
229 235 186 351 103 130 186 151 8 4 60 62 170 265 1 17 344 318 352 339 6 294 215 335 192 319 177 257 239 271 157 141 147 155 99 142 125 119 117 123 127 124 139 155
213 200 197 273 245 182 173 198 313 294 104 157 133 147 256 350 312 254 352 89 329 335 294 268 122 228 228 233 215 208 189 182 180 140 122 130 140 153 151 143 156 150 178 160
177 176 200 284 241 245 210 103 52 28 347 65 192 150 246 115 165 264 91 70 251 303 249 351 236 255 249 245 214 230 189 162 137 122 163 171 167 171 173 185 172 168 170 192
201 212 241 305 311 226 22 64 107 307 320 183 233 171 174 280 120 207 188 197 248 86 256 144 270 269 255 303 240 186 159 155 164 145 166 163 165 167 163 164 161 161 191 231
164 149 65 317 10 23 99 231 319 167 212 191 162 224 184 318 36 60 326 169 40 251 320 44 264 253 293 349 86 122 137 142 146 147 142 150 146 153 149 150 154 171 208 278
125 86 40 61 306 6 176 200 264 199 177 171 139 276 168 29 61 90 91 105 225 38 45 236 239 273 267 181 130 112 123 129 125 120 126 129 125 134 142 150 160 167 214 309
122 138 249 175 244 249 204 183 184 208 130 138 120 118 159 199 74 159 111 226 78 345 273 242 255 258 255 197 166 138 161 152 143 147 145 142 146 142 143 156 163 169 306 327
158 126 208 214 231 295 262 212 69 268 132 115 82 55 112 217 118 193 67 16 254 211 231 237 253 294 222 200 189 163 161 160 160 155 154 152 162 161 156 162 166 244 324 332
131 223 228 199 87 279 312 263 231 230 127 74 75 119 82 242 159 123 215 152 228 247 221 233 258 256 223 206 202 203 178 167 165 166 169 162 169 176 169 167 181 146 341 334
201 226 212 163 143 194 200 167 203 161 102 172 133 150 209 98 106 237 187 211 219 219 245 236 239 236 210 207 196 193 187 178 176 172 173 169 167 165 157 148 167 109 11 3